| time (UTC) | temp C | wind direction | speed KPH | gust KPH | rain 1hr cm | rain 24hr cm | rain mn cm | humidity % | barometer mb |
| 20260506182134 | 26 | 270 | 3.2 | 12.9 | 0.00 | 0.00 | 0.00 | 69 | 1009.7 |
| 20260506181624 | 26 | 45 | 3.2 | 12.9 | 0.00 | 0.00 | 0.00 | 67 | 1009.4 |
| 20260506181114 | 26 | 23 | 6.4 | 12.9 | 0.00 | 0.00 | 0.00 | 67 | 1009.4 |
| 20260506180056 | 26 | 45 | 3.2 | 11.3 | 0.00 | 0.00 | 0.00 | 68 | 1009.7 |
| 20260506175544 | 26 | 338 | 3.2 | 12.9 | 0.00 | 0.00 | 0.00 | 65 | 1010.0 |
| 20260506175033 | 26 | 135 | 6.4 | 12.9 | 0.00 | 0.00 | 0.00 | 65 | 1010.1 |
| 20260506174522 | 26 | 68 | 6.4 | 12.9 | 0.00 | 0.00 | 0.00 | 65 | 1010.1 |
| 20260506174012 | 26 | 23 | 3.2 | 12.9 | 0.00 | 0.00 | 0.00 | 66 | 1010.0 |
| 20260506173504 | 26 | 23 | 6.4 | 11.3 | 0.00 | 0.00 | 0.00 | 65 | 1010.1 |
| 20260506172952 | 26 | 45 | 3.2 | 12.9 | 0.00 | 0.00 | 0.00 | 64 | 1010.1 |
| 20260506172443 | 26 | 338 | 6.4 | 12.9 | 0.00 | 0.00 | 0.00 | 63 | 1010.1 |
| 20260506171423 | 26 | 45 | 4.8 | 11.3 | 0.00 | 0.00 | 0.00 | 62 | 1010.2 |
| 20260506170913 | 26 | 315 | 3.2 | 11.3 | 0.00 | 0.00 | 0.00 | 62 | 1010.3 |
| 20260506165341 | 26 | 23 | 6.4 | 12.9 | 0.00 | 0.00 | 0.00 | 59 | 1011.0 |
| 20260506164832 | 26 | 338 | 6.4 | 11.3 | 0.00 | 0.00 | 0.00 | 58 | 1010.9 |
| 20260506164323 | 26 | 338 | 4.8 | 11.3 | 0.00 | 0.00 | 0.00 | 60 | 1011.2 |
| 20260506163301 | 26 | 23 | 3.2 | 9.7 | 0.00 | 0.00 | 0.00 | 61 | 1011.0 |
| 20260506162751 | 26 | 270 | 0.0 | 14.5 | 0.00 | 0.00 | 0.00 | 60 | 1011.1 |
| 20260506162241 | 26 | 270 | 3.2 | 14.5 | 0.00 | 0.00 | 0.00 | 57 | 1011.2 |
| 20260506161735 | 26 | 0 | 4.8 | 12.9 | 0.00 | 0.00 | 0.00 | 58 | 1011.4 |
| 20260506161220 | 25 | 23 | 6.4 | 12.9 | 0.00 | 0.00 | 0.00 | 57 | 1011.1 |
| 20260506160714 | 25 | 90 | 3.2 | 11.3 | 0.00 | 0.00 | 0.00 | 60 | 1011.5 |
| 20260506160201 | 25 | 315 | 4.8 | 12.9 | 0.00 | 0.00 | 0.00 | 61 | 1011.6 |
| 20260506155650 | 25 | 315 | 6.4 | 12.9 | 0.00 | 0.00 | 0.00 | 62 | 1011.8 |
| 20260506155142 | 25 | 315 | 6.4 | 12.9 | 0.00 | 0.00 | 0.00 | 60 | 1011.6 |
| 20260506153610 | 25 | 135 | 4.8 | 14.5 | 0.00 | 0.00 | 0.00 | 64 | 1012.0 |
| 20260506153100 | 25 | 0 | 4.8 | 17.7 | 0.00 | 0.00 | 0.00 | 66 | 1011.8 |
| 20260506152551 | 25 | 45 | 6.4 | 17.7 | 0.00 | 0.00 | 0.00 | 64 | 1012.1 |
| 20260506151529 | 25 | 315 | 6.4 | 12.9 | 0.00 | 0.00 | 0.00 | 64 | 1012.2 |
| 20260506151019 | 24 | 68 | 6.4 | 14.5 | 0.00 | 0.00 | 0.00 | 63 | 1012.2 |
| 20260506150510 | 24 | 23 | 6.4 | 14.5 | 0.00 | 0.00 | 0.00 | 66 | 1012.4 |
| 20260506150001 | 24 | 113 | 4.8 | 9.7 | 0.00 | 0.00 | 0.00 | 64 | 1012.6 |
| 20260506145450 | 24 | 0 | 3.2 | 11.3 | 0.00 | 0.00 | 0.00 | 65 | 1012.9 |
| 20260506144939 | 24 | 0 | 6.4 | 12.9 | 0.00 | 0.00 | 0.00 | 66 | 1013.0 |
| 20260506142859 | 23 | 45 | 1.6 | 11.3 | 0.00 | 0.00 | 0.00 | 70 | 1013.1 |
| 20260506142348 | 22 | 0 | 3.2 | 11.3 | 0.00 | 0.00 | 0.00 | 73 | 1013.3 |
| 20260506141838 | 21 | 315 | 3.2 | 6.4 | 0.00 | 0.00 | 0.00 | 79 | 1013.3 |
| 20260506141328 | 21 | 225 | 3.2 | 6.4 | 0.00 | 0.00 | 0.00 | 80 | 1013.4 |
| 20260506140308 | 20 | 225 | 3.2 | 6.4 | 0.00 | 0.00 | 0.00 | 83 | 1013.3 |
| 20260506135758 | 20 | 270 | 3.2 | 6.4 | 0.00 | 0.00 | 0.00 | 84 | 1013.5 |
| 20260506135248 | 19 | 180 | 3.2 | 6.4 | 0.00 | 0.00 | 0.00 | 87 | 1013.5 |
| 20260506134738 | 19 | 225 | 3.2 | 6.4 | 0.00 | 0.00 | 0.00 | 90 | 1013.4 |
| 20260506134229 | 18 | 90 | 1.6 | 3.2 | 0.00 | 0.00 | 0.00 | 91 | 1013.8 |
| 20260506133717 | 18 | 158 | 1.6 | 3.2 | 0.00 | 0.00 | 0.00 | 93 | 1013.5 |
| 20260506133208 | 17 | 158 | 1.6 | 3.2 | 0.00 | 0.00 | 0.00 | 95 | 1013.6 |
| 20260506132657 | 17 | 180 | 3.2 | 3.2 | 0.00 | 0.00 | 0.00 | 96 | 1013.6 |
| 20260506131639 | 16 | 180 | 1.6 | 3.2 | 0.00 | 0.00 | 0.00 | 97 | 1013.5 |
| 20260506131127 | 16 | 0 | 3.2 | 3.2 | 0.00 | 0.00 | 0.00 | 97 | 1013.4 |
| 20260506130617 | 15 | 23 | 0.0 | 3.2 | 0.00 | 0.00 | 0.00 | 97 | 1013.6 |
| 20260506130107 | 15 | 23 | 0.0 | 3.2 | 0.00 | 0.00 | 0.00 | 97 | 1014.0 |
| 20260506125557 | 15 | 180 | 0.0 | 3.2 | 0.00 | 0.00 | 0.00 | 97 | 1013.4 |
| 20260506125048 | 14 | 45 | 1.6 | 3.2 | 0.00 | 0.00 | 0.00 | 97 | 1013.9 |
| 20260506124536 | 13 | 90 | 0.0 | 3.2 | 0.00 | 0.00 | 0.00 | 97 | 1013.9 |
| 20260506123519 | 12 | 45 | 0.0 | 3.2 | 0.00 | 0.00 | 0.00 | 97 | 1013.9 |
| 20260506123013 | 12 | 45 | 0.0 | 3.2 | 0.00 | 0.00 | 0.00 | 97 | 1013.8 |
| 20260506122457 | 11 | 293 | 0.0 | 3.2 | 0.00 | 0.00 | 0.00 | 97 | 1013.8 |
| 20260506121946 | 11 | 68 | 0.0 | 3.2 | 0.00 | 0.00 | 0.00 | 97 | 1013.8 |
| 20260506121435 | 11 | 0 | 3.2 | 3.2 | 0.00 | 0.00 | 0.00 | 97 | 1014.0 |
| 20260506120925 | 11 | 113 | 0.0 | 0.0 | 0.00 | 0.00 | 0.00 | 97 | 1014.0 |
| 20260506120415 | 11 | 90 | 0.0 | 3.2 | 0.00 | 0.00 | 0.00 | 96 | 1014.1 |
| 20260506115907 | 10 | 68 | 0.0 | 3.2 | 0.00 | 0.00 | 0.00 | 96 | 1013.9 |
| 20260506115355 | 10 | 23 | 3.2 | 3.2 | 0.00 | 0.00 | 0.00 | 97 | 1014.0 |
| 20260506114335 | 10 | 68 | 1.6 | 6.4 | 0.00 | 0.00 | 0.00 | 96 | 1014.0 |
| 20260506113825 | 10 | 45 | 3.2 | 6.4 | 0.00 | 0.00 | 0.00 | 96 | 1014.0 |
| 20260506113316 | 9 | 23 | 0.0 | 3.2 | 0.00 | 0.00 | 0.00 | 96 | 1014.2 |
| 20260506112804 | 9 | 0 | 0.0 | 3.2 | 0.00 | 0.00 | 0.00 | 96 | 1014.3 |
| 20260506112255 | 9 | 0 | 1.6 | 3.2 | 0.00 | 0.00 | 0.00 | 96 | 1014.4 |
| 20260506111744 | 9 | 338 | 0.0 | 3.2 | 0.00 | 0.00 | 0.00 | 96 | 1014.2 |
| 20260506111234 | 9 | 90 | 0.0 | 3.2 | 0.00 | 0.00 | 0.00 | 96 | 1014.1 |
| 20260506110726 | 9 | 45 | 0.0 | 3.2 | 0.00 | 0.00 | 0.00 | 96 | 1014.0 |
| 20260506105153 | 10 | 23 | 0.0 | 3.2 | 0.00 | 0.00 | 0.00 | 96 | 1014.2 |
| 20260506104644 | 10 | 23 | 3.2 | 3.2 | 0.00 | 0.00 | 0.00 | 96 | 1014.1 |
| 20260506104135 | 10 | 23 | 0.0 | 3.2 | 0.00 | 0.00 | 0.00 | 96 | 1013.8 |
| 20260506103114 | 9 | 0 | 0.0 | 0.0 | 0.00 | 0.00 | 0.00 | 95 | 1013.8 |
| 20260506102603 | 9 | 0 | 0.0 | 0.0 | 0.00 | 0.00 | 0.00 | 95 | 1014.0 |
| 20260506102054 | 9 | 0 | 0.0 | 0.0 | 0.00 | 0.00 | 0.00 | 95 | 1013.6 |
| 20260506101544 | 9 | 45 | 0.0 | 0.0 | 0.00 | 0.00 | 0.00 | 95 | 1013.9 |
| 20260506100012 | 10 | 23 | 0.0 | 3.2 | 0.00 | 0.00 | 0.00 | 95 | 1013.9 |
| 20260506095502 | 10 | 23 | 1.6 | 3.2 | 0.00 | 0.00 | 0.00 | 95 | 1013.9 |
| 20260506094954 | 10 | 23 | 0.0 | 3.2 | 0.00 | 0.00 | 0.00 | 95 | 1013.8 |
| 20260506094439 | 10 | 45 | 1.6 | 3.2 | 0.00 | 0.00 | 0.00 | 95 | 1014.0 |
| 20260506093932 | 10 | 0 | 3.2 | 3.2 | 0.00 | 0.00 | 0.00 | 95 | 1013.8 |
| 20260506093423 | 10 | 23 | 3.2 | 3.2 | 0.00 | 0.00 | 0.00 | 95 | 1013.6 |
| 20260506092912 | 10 | 23 | 0.0 | 0.0 | 0.00 | 0.00 | 0.00 | 95 | 1013.5 |
| 20260506091342 | 10 | 45 | 0.0 | 3.2 | 0.00 | 0.00 | 0.00 | 95 | 1013.9 |
| 20260506090321 | 10 | 113 | 0.0 | 3.2 | 0.00 | 0.00 | 0.00 | 95 | 1013.5 |
| 20260506085811 | 10 | 158 | 3.2 | 3.2 | 0.00 | 0.00 | 0.00 | 95 | 1013.6 |
| 20260506084751 | 11 | 45 | 1.6 | 3.2 | 0.00 | 0.00 | 0.00 | 95 | 1013.6 |
| 20260506084242 | 11 | 0 | 0.0 | 0.0 | 0.00 | 0.00 | 0.00 | 95 | 1013.6 |
| 20260506083731 | 11 | 68 | 0.0 | 0.0 | 0.00 | 0.00 | 0.00 | 95 | 1013.9 |
| 20260506083221 | 11 | 45 | 0.0 | 0.0 | 0.00 | 0.00 | 0.00 | 95 | 1013.8 |
| 20260506082710 | 11 | 90 | 0.0 | 0.0 | 0.00 | 0.00 | 0.00 | 95 | 1013.6 |
| 20260506081141 | 12 | 158 | 0.0 | 3.2 | 0.00 | 0.00 | 0.00 | 95 | 1014.0 |
| 20260506080630 | 12 | 68 | 0.0 | 3.2 | 0.00 | 0.00 | 0.00 | 95 | 1013.8 |
| 20260506080120 | 12 | 45 | 0.0 | 3.2 | 0.00 | 0.00 | 0.00 | 95 | 1014.0 |
| 20260506073529 | 12 | 23 | 0.0 | 3.2 | 0.00 | 0.00 | 0.00 | 95 | 1014.2 |
| 20260506073019 | 12 | 45 | 1.6 | 3.2 | 0.00 | 0.00 | 0.00 | 95 | 1014.5 |
| 20260506072511 | 12 | 45 | 1.6 | 3.2 | 0.00 | 0.00 | 0.00 | 95 | 1014.6 |
| 20260506071449 | 13 | 90 | 0.0 | 0.0 | 0.00 | 0.00 | 0.00 | 95 | 1014.5 |
| 20260506070939 | 13 | 68 | 0.0 | 0.0 | 0.00 | 0.00 | 0.00 | 95 | 1014.4 |
| 20260506070429 | 13 | 45 | 0.0 | 0.0 | 0.00 | 0.00 | 0.00 | 95 | 1014.9 |
| 20260506062308 | 14 | 293 | 0.0 | 3.2 | 0.00 | 0.00 | 0.00 | 95 | 1015.4 |
| 20260506061758 | 14 | 23 | 0.0 | 3.2 | 0.00 | 0.00 | 0.00 | 95 | 1015.4 |
| 20260506061247 | 14 | 248 | 3.2 | 3.2 | 0.00 | 0.00 | 0.00 | 95 | 1015.6 |
| 20260506060147 | 14 | 23 | 1.6 | 0.0 | 0.00 | 0.00 | 0.00 | 95 | 1015.5 |
| 20260506051258 | 13 | 248 | 1.6 | 3.2 | 0.00 | 0.00 | 0.00 | 95 | 1016.0 |
| 20260506050747 | 13 | 338 | 1.6 | 3.2 | 0.00 | 0.00 | 0.00 | 95 | 1016.1 |
| 20260506050236 | 13 | 338 | 0.0 | 3.2 | 0.00 | 0.00 | 0.00 | 95 | 1016.1 |
| 20260506044708 | 13 | 338 | 0.0 | 3.2 | 0.00 | 0.00 | 0.00 | 94 | 1016.3 |
| 20260506043646 | 13 | 0 | 3.2 | 3.2 | 0.00 | 0.00 | 0.00 | 94 | 1016.8 |
| 20260506043136 | 13 | 45 | 1.6 | 3.2 | 0.00 | 0.00 | 0.00 | 94 | 1016.5 |
| 20260506041606 | 12 | 45 | 0.0 | 0.0 | 0.00 | 0.00 | 0.00 | 93 | 1016.9 |
| 20260506040546 | 13 | 0 | 0.0 | 3.2 | 0.00 | 0.00 | 0.00 | 93 | 1017.1 |
| 20260506040035 | 13 | 113 | 0.0 | 0.0 | 0.00 | 0.00 | 0.00 | 93 | 1016.9 |
| 20260506035019 | 13 | 90 | 0.0 | 0.0 | 0.00 | 0.00 | 0.00 | 93 | 1017.1 |
| 20260506034512 | 13 | 180 | 0.0 | 0.0 | 0.00 | 0.00 | 0.00 | 93 | 1017.0 |
| 20260506033954 | 13 | 203 | 0.0 | 3.2 | 0.00 | 0.00 | 0.00 | 93 | 1017.0 |
| 20260506033444 | 13 | 293 | 0.0 | 3.2 | 0.00 | 0.00 | 0.00 | 93 | 1016.9 |
| 20260506032936 | 13 | 23 | 3.2 | 3.2 | 0.00 | 0.00 | 0.00 | 93 | 1017.1 |
| 20260506032425 | 13 | 45 | 3.2 | 3.2 | 0.00 | 0.00 | 0.00 | 93 | 1017.1 |
| 20260506031404 | 13 | 180 | 3.2 | 3.2 | 0.00 | 0.00 | 0.00 | 92 | 1017.0 |
| 20260506030854 | 13 | 0 | 0.0 | 3.2 | 0.00 | 0.00 | 0.00 | 93 | 1017.3 |
| 20260506030346 | 13 | 0 | 3.2 | 3.2 | 0.00 | 0.00 | 0.00 | 93 | 1017.2 |
| 20260506025834 | 14 | 68 | 1.6 | 3.2 | 0.00 | 0.00 | 0.00 | 93 | 1017.2 |
| 20260506025324 | 14 | 0 | 0.0 | 3.2 | 0.00 | 0.00 | 0.00 | 92 | 1017.3 |
| 20260506024813 | 14 | 68 | 0.0 | 3.2 | 0.00 | 0.00 | 0.00 | 92 | 1017.2 |
| 20260506023755 | 14 | 0 | 3.2 | 3.2 | 0.00 | 0.00 | 0.00 | 92 | 1017.6 |
| 20260506023244 | 14 | 90 | 0.0 | 3.2 | 0.00 | 0.00 | 0.00 | 92 | 1017.7 |
| 20260506021713 | 14 | 45 | 0.0 | 6.4 | 0.00 | 0.00 | 0.00 | 92 | 1017.7 |
| 20260506021204 | 14 | 68 | 1.6 | 6.4 | 0.00 | 0.00 | 0.00 | 92 | 1017.4 |
| 20260506020653 | 14 | 23 | 3.2 | 3.2 | 0.00 | 0.00 | 0.00 | 91 | 1017.7 |
| 20260506020143 | 14 | 68 | 0.0 | 6.4 | 0.00 | 0.00 | 0.00 | 91 | 1017.7 |
| 20260506015632 | 14 | 180 | 3.2 | 6.4 | 0.00 | 0.00 | 0.00 | 91 | 1017.6 |
| 20260506015122 | 15 | 23 | 4.8 | 6.4 | 0.00 | 0.00 | 0.00 | 92 | 1017.4 |
| 20260506014614 | 15 | 248 | 0.0 | 3.2 | 0.00 | 0.00 | 0.00 | 92 | 1017.4 |
| 20260506014102 | 15 | 68 | 1.6 | 6.4 | 0.00 | 0.00 | 0.00 | 91 | 1017.4 |
| 20260506013553 | 15 | 0 | 3.2 | 6.4 | 0.00 | 0.00 | 0.00 | 91 | 1017.2 |
| 20260506013042 | 15 | 90 | 1.6 | 6.4 | 0.00 | 0.00 | 0.00 | 92 | 1017.2 |
| 20260506012532 | 15 | 90 | 3.2 | 6.4 | 0.00 | 0.00 | 0.00 | 91 | 1017.1 |
| 20260506012023 | 15 | 45 | 1.6 | 6.4 | 0.00 | 0.00 | 0.00 | 91 | 1017.1 |
| 20260506011514 | 15 | 23 | 1.6 | 3.2 | 0.00 | 0.00 | 0.00 | 90 | 1017.5 |
| 20260506011002 | 15 | 113 | 1.6 | 6.4 | 0.00 | 0.00 | 0.00 | 90 | 1017.2 |
| 20260506010452 | 15 | 225 | 3.2 | 6.4 | 0.00 | 0.00 | 0.00 | 91 | 1017.1 |
| 20260506005942 | 15 | 45 | 3.2 | 3.2 | 0.00 | 0.00 | 0.00 | 91 | 1017.1 |
| 20260506005433 | 15 | 45 | 0.0 | 6.4 | 0.00 | 0.00 | 0.00 | 91 | 1017.1 |
| 20260506004921 | 15 | 45 | 0.0 | 6.4 | 0.00 | 0.00 | 0.00 | 91 | 1016.9 |
| 20260506004411 | 15 | 23 | 3.2 | 3.2 | 0.00 | 0.00 | 0.00 | 91 | 1017.3 |
| 20260506003351 | 15 | 338 | 1.6 | 6.4 | 0.00 | 0.00 | 0.00 | 91 | 1016.9 |
| 20260506002842 | 15 | 23 | 3.2 | 6.4 | 0.00 | 0.00 | 0.00 | 92 | 1017.1 |
| 20260506002331 | 15 | 0 | 3.2 | 3.2 | 0.00 | 0.00 | 0.00 | 92 | 1017.2 |
| 20260506001821 | 15 | 23 | 3.2 | 3.2 | 0.00 | 0.00 | 0.00 | 91 | 1017.2 |
| 20260506001311 | 15 | 0 | 0.0 | 3.2 | 0.00 | 0.00 | 0.00 | 91 | 1016.6 |
| 20260506000251 | 15 | 203 | 3.2 | 6.4 | 0.00 | 0.00 | 0.00 | 90 | 1016.6 |
| 20260505235230 | 15 | 23 | 3.2 | 3.2 | 0.00 | 0.00 | 0.00 | 90 | 1016.6 |
| 20260505234719 | 15 | 180 | 3.2 | 3.2 | 0.00 | 0.00 | 0.00 | 89 | 1016.8 |
| 20260505234210 | 16 | 90 | 0.0 | 3.2 | 0.00 | 0.00 | 0.00 | 90 | 1016.5 |
| 20260505233150 | 16 | 68 | 1.6 | 3.2 | 0.00 | 0.00 | 0.00 | 90 | 1016.3 |
| 20260505232640 | 16 | 23 | 0.0 | 3.2 | 0.00 | 0.00 | 0.00 | 89 | 1016.1 |
| 20260505232129 | 16 | 113 | 3.2 | 3.2 | 0.00 | 0.00 | 0.00 | 88 | 1016.1 |
| 20260505231619 | 16 | 248 | 1.6 | 6.4 | 0.00 | 0.00 | 0.00 | 88 | 1016.3 |
| 20260505231110 | 16 | 23 | 1.6 | 6.4 | 0.00 | 0.00 | 0.00 | 87 | 1016.0 |
| 20260505230559 | 16 | 338 | 1.6 | 6.4 | 0.00 | 0.00 | 0.00 | 87 | 1016.0 |
| 20260505230056 | 16 | 23 | 3.2 | 6.4 | 0.00 | 0.00 | 0.00 | 86 | 1016.2 |
| 20260505225029 | 17 | 68 | 0.0 | 3.2 | 0.00 | 0.00 | 0.00 | 86 | 1016.1 |
| 20260505224520 | 17 | 315 | 0.0 | 3.2 | 0.00 | 0.00 | 0.00 | 85 | 1016.2 |
| 20260505223458 | 17 | 0 | 0.0 | 3.2 | 0.00 | 0.00 | 0.00 | 85 | 1016.0 |
| 20260505222948 | 17 | 338 | 1.6 | 3.2 | 0.00 | 0.00 | 0.00 | 84 | 1016.0 |
| 20260505220907 | 18 | 90 | 3.2 | 3.2 | 0.00 | 0.00 | 0.00 | 83 | 1015.8 |
| 20260505220358 | 18 | 68 | 1.6 | 3.2 | 0.00 | 0.00 | 0.00 | 82 | 1015.5 |
| 20260505215848 | 18 | 68 | 3.2 | 3.2 | 0.00 | 0.00 | 0.00 | 81 | 1015.3 |
| 20260505215339 | 19 | 68 | 0.0 | 3.2 | 0.00 | 0.00 | 0.00 | 80 | 1015.4 |
| 20260505214827 | 20 | 68 | 1.6 | 3.2 | 0.00 | 0.00 | 0.00 | 79 | 1015.2 |
| 20260505213257 | 21 | 113 | 0.0 | 0.0 | 0.00 | 0.00 | 0.00 | 75 | 1015.1 |
| 20260505212749 | 21 | 90 | 0.0 | 3.2 | 0.00 | 0.00 | 0.00 | 73 | 1015.0 |
| 20260505212237 | 21 | 68 | 0.0 | 6.4 | 0.00 | 0.00 | 0.00 | 72 | 1014.9 |
| 20260505211727 | 22 | 203 | 1.6 | 6.4 | 0.00 | 0.00 | 0.00 | 70 | 1015.0 |
| 20260505211216 | 22 | 203 | 3.2 | 6.4 | 0.00 | 0.00 | 0.00 | 69 | 1014.9 |
| 20260505210706 | 22 | 203 | 3.2 | 6.4 | 0.00 | 0.00 | 0.00 | 68 | 1014.9 |
| 20260505210158 | 22 | 248 | 3.2 | 6.4 | 0.00 | 0.00 | 0.00 | 68 | 1014.8 |
| 20260505205136 | 23 | 180 | 3.2 | 6.4 | 0.00 | 0.00 | 0.00 | 64 | 1014.5 |
| 20260505203607 | 24 | 203 | 3.2 | 11.3 | 0.00 | 0.00 | 0.00 | 60 | 1014.3 |
| 20260505201525 | 25 | 225 | 4.8 | 11.3 | 0.00 | 0.00 | 0.00 | 57 | 1014.2 |
| 20260505201017 | 26 | 180 | 4.8 | 11.3 | 0.00 | 0.00 | 0.00 | 56 | 1014.4 |
| 20260505200505 | 26 | 248 | 6.4 | 11.3 | 0.00 | 0.00 | 0.00 | 56 | 1014.1 |
| 20260505195955 | 26 | 203 | 6.4 | 11.3 | 0.00 | 0.00 | 0.00 | 54 | 1014.1 |
| 20260505195445 | 26 | 248 | 3.2 | 6.4 | 0.00 | 0.00 | 0.00 | 56 | 1014.1 |
| 20260505194935 | 27 | 248 | 3.2 | 9.7 | 0.00 | 0.00 | 0.00 | 54 | 1013.9 |
| 20260505193914 | 27 | 180 | 8.0 | 11.3 | 0.00 | 0.00 | 0.00 | 52 | 1014.1 |
| 20260505193405 | 27 | 203 | 4.8 | 9.7 | 0.00 | 0.00 | 0.00 | 52 | 1014.1 |
| 20260505192854 | 27 | 203 | 4.8 | 11.3 | 0.00 | 0.00 | 0.00 | 53 | 1014.2 |
| 20260505192344 | 27 | 203 | 6.4 | 12.9 | 0.00 | 0.00 | 0.00 | 50 | 1014.0 |
| 20260505191835 | 27 | 180 | 8.0 | 12.9 | 0.00 | 0.00 | 0.00 | 50 | 1014.1 |
| 20260505191326 | 27 | 180 | 6.4 | 11.3 | 0.00 | 0.00 | 0.00 | 52 | 1014.0 |
| 20260505190813 | 27 | 203 | 3.2 | 12.9 | 0.00 | 0.00 | 0.00 | 51 | 1014.2 |
| 20260505190303 | 27 | 248 | 4.8 | 12.9 | 0.00 | 0.00 | 0.00 | 52 | 1013.9 |
| 20260505185754 | 27 | 203 | 3.2 | 11.3 | 0.00 | 0.00 | 0.00 | 53 | 1014.0 |
| 20260505185248 | 27 | 225 | 4.8 | 11.3 | 0.00 | 0.00 | 0.00 | 52 | 1014.1 |
| 20260505184733 | 27 | 158 | 8.0 | 11.3 | 0.00 | 0.00 | 0.00 | 50 | 1014.2 |
| 20260505184223 | 27 | 248 | 3.2 | 11.3 | 0.00 | 0.00 | 0.00 | 52 | 1014.1 |
| 20260505183713 | 27 | 203 | 3.2 | 11.3 | 0.00 | 0.00 | 0.00 | 52 | 1014.1 |
| 20260505183203 | 27 | 180 | 6.4 | 12.9 | 0.00 | 0.00 | 0.00 | 53 | 1014.3 |
| 20260505182654 | 27 | 158 | 6.4 | 12.9 | 0.00 | 0.00 | 0.00 | 52 | 1014.3 |